Location: Bucharest
(44.4268°N, 26.1025°E)
Time: 15:48:09
(UTC+03:00)

CUTE 1.7 + AOD 2 - Pass Details

Date: 26 June 2022
Orbit: 589 x 608 km, 97.7° (Epoch: 14 August)

Event Time Altitude Azimuth Distance (km) Brightness Sun altitude
Rises 04:11:40 0° 27° (NNE) 2,858 ? -11.5°
Reaches altitude 10° 04:14:23 10° 45° (NE) 1,946 ? -11.2°
Maximum altitude 04:17:27 19° 92° (E) 1,420 ? -10.8°
Drops below altitude 10° 04:20:30 10° 139° (SE) 1,925 ? -10.5°
Sets 04:23:09 0° 157° (SSE) 2,817 ? -10.2°
